1505718000.68,42655,14.0,73488.3,-1.71,-3.87,-4.01,0,*5E
1505718001.91,42656,14.0,73490.0,-1.71,-3.83,-4.01,0,*59
1505718003.14,42657,14.0,73488.8,-1.71,-3.95,-4.01,0,*5F
1505718004.33,42658,14.0,73492.5,-1.71,-4.09,-4.17,0,*55
1505718005.54,42659,14.0,73494.8,-1.71,-4.17,-4.37,0,*59
1505718006.74,42660,14.0,73492.3,-1.71,-4.25,-4.41,0,*53
1505718007.95,42661,14.0,73494.8,-1.71,-3.83,-4.09,0,*55
1505718009.17,42662,14.0,73492.3,-1.71,-3.67,-3.87,0,*5D
1505718010.4,42663,14.0,73490.8,-1.71,-3.51,-3.75,0,*54
1505718011.64,42664,14.0,73498.8,-1.67,-3.47,-3.71,0,*57
1505718012.86,42665,13.94,73496.5,-1.71,-3.71,-3.95,0,*5E
1505718014.08,42666,14.0,73498.0,-1.71,-3.71,-3.83,0,*5A
1505718015.35,42667,14.0,73496.3,-1.69,-3.55,-3.71,0,*59
1505718016.57,42668,14.0,73498.5,-1.67,-3.31,-3.43,0,*5B
1505718017.76,42669,14.0,73498.3,-1.67,-3.07,-3.19,0,*50
1505718018.98,42670,14.0,73494.0,-1.65,-2.91,-3.03,0,*5F
1505718020.2,42671,14.0,73494.5,-1.65,-2.91,-3.11,0,*5D
1505718021.39,42672,14.0,73492.8,-1.63,-2.87,-3.07,0,*58
1505718022.62,42673,13.94,73494.5,-1.61,-3.07,-3.11,0,*55
1505718023.87,42674,14.0,73500.0,-1.63,-2.71,-2.75,0,*53
1505718025.15,42675,14.0,73500.8,-1.61,-2.51,-2.63,0,*55
1505718026.35,42676,14.0,73498.5,-1.59,-3.03,-3.07,0,*58
1505718027.59,42677,14.0,73494.5,-1.59,-3.55,-3.67,0,*5C
1505718028.82,42678,14.0,73494.0,-1.55,-3.59,-3.79,0,*5C
1505718030.02,42679,14.0,73490.5,-1.55,-3.07,-3.19,0,*50
1505718031.21,42680,14.0,73492.3,-1.55,-2.91,-3.03,0,*53
1505718032.43,42681,14.0,73496.0,-1.53,-2.99,-3.15,0,*5B
1505718033.67,42682,14.0,73494.5,-1.53,-3.31,-3.51,0,*5B
1505718034.94,42683,14.0,73494.3,-1.53,-3.43,-3.51,0,*5F
1505718036.19,42684,14.0,73488.0,-1.53,-3.31,-3.51,0,*5D
1505718037.42,42685,14.0,73484.5,-1.51,-3.43,-3.55,0,*5F
1505718038.65,42686,14.0,73480.0,-1.53,-3.79,-3.95,0,*5B
1505718039.86,42687,13.94,73474.8,-1.51,-3.91,-4.09,0,*5C
1505718041.05,42688,14.0,73480.5,-1.51,-3.87,-4.05,0,*58
1505718042.27,42689,14.0,73484.5,-1.49,-3.27,-3.39,0,*52
1505718043.47,42690,14.0,73482.3,-1.51,-3.03,-3.11,0,*5F
1505718044.68,42691,14.0,73480.3,-1.49,-3.07,-3.15,0,*57
1505718045.88,42692,14.0,73482.0,-1.51,-3.11,-3.27,0,*5B
1505718047.1,42693,14.0,73480.5,-1.49,-3.07,-3.27,0,*54
1505718048.32,42694,14.0,73486.5,-1.49,-2.99,-3.11,0,*50
1505718049.56,42695,14.0,73488.0,-1.49,-2.75,-2.99,0,*52
1505718050.84,42696,14.0,73488.3,-1.47,-2.51,-2.71,0,*5F
1505718052.1,42697,14.0,73486.3,-1.45,-2.47,-2.67,0,*5C
1505718053.35,42698,14.0,73490.8,-1.41,-2.63,-2.75,0,*52
1505718054.6,42699,14.0,73486.5,-1.43,-2.67,-2.87,0,*58
1505718055.84,42700,14.0,73486.5,-1.43,-2.75,-2.87,0,*5A
1505718057.06,42701,14.0,73488.3,-1.43,-2.91,-3.07,0,*58
1505718058.28,42702,13.94,73482.5,-1.45,-3.31,-3.47,0,*52
1505718059.53,42703,14.0,73490.8,-1.43,-3.31,-3.63,0,*53
1505718060.76,42704,14.0,73488.5,-1.45,-3.59,-3.79,0,*57
1505718061.95,42705,14.0,73494.8,-1.45,-4.13,-4.33,0,*56
1505718063.18,42706,14.0,73494.5,-1.43,-4.17,-4.41,0,*52
1505718064.41,42707,14.0,73496.5,-1.43,-3.83,-4.17,0,*5A
1505718065.68,42708,14.0,73498.3,-1.47,-3.47,-3.71,0,*5E
1505718066.9,42709,14.0,73498.8,-1.47,-3.07,-3.27,0,*58
1505718068.15,42710,13.94,73496.3,-1.47,-3.63,-3.75,0,*55
1505718069.41,42711,14.0,73500.5,-1.47,-3.75,-4.01,0,*57
1505718070.66,42712,14.0,73498.0,-1.47,-3.71,-3.83,0,*5D
1505718071.93,42713,14.0,73500.8,-1.47,-3.51,-3.63,0,*50
1505718073.2,42714,14.0,73498.0,-1.47,-3.47,-3.63,0,*50
1505718074.44,42715,14.0,73500.5,-1.47,-3.39,-3.51,0,*59
1505718075.68,42716,14.0,73502.3,-1.49,-3.23,-3.47,0,*58
1505718076.93,42717,14.0,73498.5,-1.47,-3.51,-3.75,0,*53
1505718078.18,42718,14.0,73504.0,-1.47,-3.71,-3.91,0,*54
1505718079.41,42719,14.0,73502.8,-1.49,-3.75,-4.05,0,*55
1505718080.66,42720,14.0,73500.0,-1.49,-4.01,-4.29,0,*55
1505718081.88,42721,14.0,73502.5,-1.49,-4.17,-4.41,0,*5D
1505718083.09,42722,14.0,73500.3,-1.51,-3.91,-4.21,0,*58
1505718084.31,42723,14.0,73500.8,-1.51,-3.67,-3.75,0,*56
1505718085.51,42724,14.0,73498.8,-1.51,-3.15,-3.27,0,*53
1505718086.73,42725,14.0,73496.8,-1.53,-2.79,-2.91,0,*57
1505718087.95,42726,14.0,73502.8,-1.49,-2.99,-3.11,0,*58
1505718089.17,42727,14.0,73496.3,-1.47,-2.99,-3.15,0,*53
1505718090.39,42728,14.0,73496.3,-1.47,-2.83,-2.87,0,*5D
1505718091.61,42729,14.0,73496.3,-1.47,-2.83,-2.95,0,*5F
1505718092.81,42730,14.0,73500.3,-1.45,-2.79,-2.87,0,*53
1505718094.03,42731,14.0,73502.3,-1.45,-2.71,-2.83,0,*5E
1505718095.26,42732,14.0,73502.3,-1.43,-2.99,-3.07,0,*50
1505718096.48,42733,14.0,73500.5,-1.43,-3.03,-3.15,0,*50
1505718097.69,42734,14.0,73494.5,-1.41,-3.31,-3.51,0,*54
1505718098.94,42735,14.0,73492.3,-1.43,-3.27,-3.43,0,*53
1505718100.21,42736,14.0,73490.8,-1.43,-3.43,-3.63,0,*50
1505718101.46,42737,14.0,73486.0,-1.43,-3.27,-3.51,0,*52
1505718102.66,42738,14.0,73492.8,-1.41,-3.79,-3.95,0,*5C
1505718103.91,42739,14.0,73496.0,-1.43,-3.67,-3.79,0,*52
1505718105.11,42740,14.0,73498.0,-1.45,-3.19,-3.27,0,*58
1505718106.3,42741,14.0,73492.5,-1.41,-2.99,-3.07,0,*56
1505718107.54,42742,14.0,73494.8,-1.41,-3.51,-3.63,0,*52
1505718108.74,42743,14.0,73494.3,-1.41,-3.79,-3.95,0,*50
1505718109.96,42744,14.0,73492.0,-1.41,-3.39,-3.51,0,*5B
1505718111.15,42745,14.0,73492.3,-1.41,-3.23,-3.39,0,*5F
1505718112.34,42746,14.0,73490.5,-1.41,-3.23,-3.39,0,*5C
1505718113.56,42747,14.0,73494.8,-1.41,-3.51,-3.75,0,*50
1505718114.8,42748,14.0,73492.3,-1.41,-3.55,-3.67,0,*58
1505718116.02,42749,14.0,73490.0,-1.41,-3.51,-3.75,0,*5E
1505718117.24,42750,14.0,73494.3,-1.41,-3.63,-3.79,0,*5B
1505718118.44,42751,14.0,73496.8,-1.41,-4.41,-4.65,0,*57
1505718119.67,42752,14.0,73498.5,-1.41,-4.69,-4.93,0,*57
1505718120.88,42753,14.0,73494.5,-1.41,-4.69,-4.99,0,*5C
1505718122.13,42754,14.0,73482.5,-1.43,-4.65,-4.93,0,*5F
1505718123.38,42755,14.0,73484.5,-1.45,-4.73,-5.03,0,*57
1505718124.6,42756,14.0,73490.5,-1.45,-4.73,-4.99,0,*56
1505718125.83,42757,14.0,73488.3,-1.45,-4.61,-4.85,0,*59
1505718127.07,42758,14.0,73490.5,-1.45,-4.69,-4.89,0,*52
1505718128.32,42759,14.0,73488.8,-1.47,-4.65,-4.93,0,*56
1505718129.6,42760,14.0,73488.8,-1.47,-4.81,-5.07,0,*5A
1505718130.86,42761,14.0,73490.5,-1.49,-4.77,-5.07,0,*5C
1505718132.11,42762,14.0,73490.5,-1.49,-4.61,-4.89,0,*5F
1505718133.36,42763,14.0,73486.0,-1.47,-4.61,-4.89,0,*50
1505718134.58,42764,14.0,73482.5,-1.49,-4.41,-4.53,0,*5C
1505718135.81,42765,14.0,73480.8,-1.49,-3.91,-4.13,0,*53
1505718137.04,42766,14.0,73482.3,-1.49,-3.91,-4.13,0,*50
1505718138.27,42767,14.0,73480.3,-1.49,-4.25,-4.49,0,*56
1505718139.49,42768,14.0,73484.8,-1.49,-3.83,-3.91,0,*50
1505718140.73,42769,14.0,73490.3,-1.49,-3.39,-3.63,0,*5D
1505718141.98,42770,14.0,73488.3,-1.49,-3.39,-3.59,0,*5C
1505718143.22,42771,14.0,73488.3,-1.49,-3.39,-3.63,0,*54
1505718144.46,42772,14.0,73488.5,-1.47,-3.39,-3.71,0,*5A
1505718145.68,42773,14.0,73490.8,-1.47,-3.07,-3.23,0,*51
1505718146.9,42774,14.0,73490.5,-1.47,-2.99,-3.11,0,*51
1505718148.15,42775,14.0,73492.8,-1.47,-2.71,-2.83,0,*5C
1505718149.43,42776,14.0,73492.0,-1.43,-2.47,-2.71,0,*53
1505718150.68,42777,14.0,73494.0,-1.43,-2.39,-2.55,0,*5D
1505718151.87,42778,14.0,73498.8,-1.41,-2.31,-2.43,0,*5F
1505718153.09,42779,14.0,73500.8,-1.39,-2.23,-2.39,0,*5F
1505718154.36,42780,14.0,73496.0,-1.39,-2.51,-2.71,0,*50
1505718155.58,42781,14.0,73496.8,-1.39,-2.83,-3.03,0,*5A
1505718156.83,42782,14.0,73494.3,-1.39,-2.75,-2.95,0,*5E
1505718158.05,42783,14.0,73498.5,-1.39,-2.87,-3.11,0,*5F
1505718159.27,42784,14.0,73496.3,-1.39,-2.87,-2.99,0,*59
1505718160.48,42785,14.0,73494.0,-1.35,-2.91,-3.11,0,*52
1505718161.7,42786,14.0,73496.3,-1.35,-2.99,-3.19,0,*51
1505718162.92,42787,14.0,73496.5,-1.35,-3.11,-3.35,0,*5F
1505718164.14,42788,14.0,73498.5,-1.35,-3.87,-4.09,0,*57
1505718165.37,42789,14.0,73500.0,-1.35,-3.75,-3.95,0,*59
1505718166.63,42790,14.0,73500.0,-1.35,-3.67,-3.71,0,*58
1505718167.9,42791,14.0,73502.0,-1.39,-3.47,-3.71,0,*57
1505718169.14,42792,14.0,73502.0,-1.39,-3.35,-3.47,0,*54
1505718170.37,42793,14.0,73500.3,-1.39,-3.23,-3.47,0,*52
1505718171.62,42794,14.0,73498.3,-1.39,-4.01,-4.17,0,*50
1505718172.84,42795,14.0,73502.8,-1.39,-4.05,-4.29,0,*58
1505718174.07,42796,14.0,73496.8,-1.39,-3.87,-4.13,0,*5F
1505718175.29,42797,14.0,73496.0,-1.39,-4.25,-4.37,0,*57
1505718176.57,42798,14.0,73498.8,-1.39,-4.89,-5.15,0,*5F
1505718177.81,42799,14.0,73496.3,-1.43,-5.61,-6.01,0,*52
1505718179.06,42800,14.0,73496.0,-1.43,-5.35,-5.65,0,*5D
1505718180.31,42801,14.0,73498.0,-1.49,-5.19,-5.51,0,*5F
1505718181.58,42802,14.0,73498.5,-1.49,-4.81,-5.19,0,*50
1505718182.79,42803,14.0,73496.8,-1.49,-4.49,-4.65,0,*5F
1505718184.02,42804,14.0,73498.8,-1.49,-4.05,-4.25,0,*54
1505718185.25,42805,14.0,73492.0,-1.49,-3.91,-4.29,0,*53
1505718186.49,42806,14.0,73498.8,-1.49,-3.63,-3.87,0,*5E
1505718187.73,42807,14.0,73496.0,-1.51,-3.51,-3.63,0,*5D
1505718188.98,42808,14.0,73494.0,-1.49,-3.71,-3.75,0,*5E
1505718190.19,42809,14.0,73490.3,-1.49,-4.05,-4.17,0,*58
1505718191.41,42810,14.0,73484.8,-1.49,-4.13,-4.29,0,*5A
1505718192.64,42811,14.0,73478.5,-1.49,-3.83,-4.05,0,*5B
1505718193.86,42812,14.0,73476.0,-1.47,-4.37,-4.49,0,*56
1505718195.08,42813,14.0,73474.8,-1.49,-4.29,-4.49,0,*56
1505718196.3,42814,14.0,73470.0,-1.49,-4.25,-4.41,0,*55
1505718197.5,42815,14.0,73476.8,-1.51,-4.05,-4.21,0,*59
1505718198.7,42816,14.0,73478.5,-1.51,-4.09,-4.21,0,*56
1505718199.93,42817,14.0,73482.8,-1.49,-3.91,-4.17,0,*5D
1505718201.15,42818,14.0,73486.5,-1.49,-4.37,-4.53,0,*59
1505718202.37,42819,14.0,73486.8,-1.47,-4.37,-4.61,0,*57
1505718203.64,42820,14.0,73490.5,-1.49,-4.73,-5.07,0,*52
1505718204.86,42821,14.0,73488.3,-1.49,-4.29,-4.53,0,*5C
1505718206.06,42822,14.0,73492.5,-1.51,-4.17,-4.41,0,*58
1505718207.26,42823,14.0,73490.8,-1.51,-4.05,-4.29,0,*54
1505718208.45,42824,14.0,73484.8,-1.51,-4.05,-4.29,0,*53
1505718209.66,42825,14.0,73482.5,-1.51,-3.79,-3.95,0,*5E
1505718210.9,42826,14.0,73486.5,-1.49,-3.39,-3.51,0,*58
1505718212.14,42827,14.0,73492.3,-1.49,-3.35,-3.59,0,*5D
1505718213.38,42828,14.0,73494.0,-1.49,-3.71,-3.87,0,*51
1505718214.61,42829,14.0,73494.5,-1.49,-3.75,-3.91,0,*53
1505718215.86,42830,14.0,73496.8,-1.47,-3.59,-3.83,0,*58
1505718217.12,42831,14.0,73494.8,-1.47,-3.59,-3.75,0,*50
1505718218.37,42832,14.0,73494.0,-1.47,-3.63,-3.83,0,*53
1505718219.61,42833,14.0,73490.8,-1.49,-3.71,-3.91,0,*5C
1505718220.85,42834,14.0,73488.5,-1.47,-3.83,-3.91,0,*58
1505718222.08,42835,14.0,73486.0,-1.47,-3.75,-3.83,0,*53
1505718223.31,42836,14.0,73490.5,-1.47,-3.91,-4.17,0,*50
1505718224.53,42837,14.0,73494.8,-1.47,-4.37,-4.61,0,*5B
1505718225.76,42838,14.0,73494.0,-1.47,-4.29,-4.53,0,*5A
1505718226.99,42839,14.0,73494.8,-1.47,-4.29,-4.61,0,*5A
1505718228.21,42840,14.0,73496.0,-1.47,-4.41,-4.61,0,*5A
1505718229.44,42841,14.0,73496.5,-1.47,-4.37,-4.53,0,*5B
1505718230.68,42842,14.0,73496.0,-1.47,-3.71,-3.83,0,*57
1505718231.95,42843,14.0,73498.5,-1.47,-3.51,-3.71,0,*59
1505718233.2,42844,14.0,73498.0,-1.47,-3.71,-3.87,0,*55
1505718234.46,42845,14.0,73496.0,-1.47,-3.83,-4.01,0,*50
1505718235.71,42846,14.0,73496.0,-1.47,-3.51,-3.75,0,*58
1505718236.93,42847,14.0,73492.5,-1.47,-2.99,-3.23,0,*5F
1505718238.15,42848,14.0,73492.3,-1.45,-2.71,-2.95,0,*58
1505718239.43,42849,14.0,73492.3,-1.43,-2.51,-2.71,0,*57
1505718240.68,42850,14.0,73492.8,-1.41,-2.63,-2.75,0,*58
1505718241.87,42851,14.0,73492.0,-1.41,-2.79,-2.91,0,*58
1505718243.12,42852,14.0,73494.8,-1.41,-2.47,-2.63,0,*5B
1505718244.37,42853,14.0,73490.5,-1.39,-2.35,-2.59,0,*59
1505718245.58,42854,14.0,73496.5,-1.35,-2.79,-2.91,0,*5E
1505718246.8,42855,14.0,73494.8,-1.31,-2.83,-2.95,0,*5A
1505718248.01,42856,14.0,73496.8,-1.35,-2.99,-3.19,0,*53
1505718249.25,42857,14.0,73490.3,-1.31,-3.31,-3.47,0,*5E
1505718250.47,42858,14.0,73492.8,-1.31,-2.99,-3.11,0,*51
1505718251.69,42859,14.0,73494.3,-1.27,-2.79,-3.03,0,*5A
1505718252.92,42860,14.0,73492.5,-1.29,-3.43,-3.67,0,*54
1505718254.14,42861,14.0,73486.3,-1.29,-3.67,-3.83,0,*59
1505718255.36,42862,14.0,73486.5,-1.29,-3.63,-3.83,0,*5E
1505718256.56,42863,14.0,73486.0,-1.29,-3.83,-4.09,0,*54
1505718257.79,42864,14.0,73484.0,-1.27,-4.21,-4.33,0,*5B
1505718258.98,42865,14.0,73490.0,-1.29,-4.17,-4.41,0,*54
1505718260.25,42866,14.0,73488.0,-1.35,-3.71,-4.01,0,*59
1505718261.49,42867,14.0,73490.0,-1.31,-3.67,-3.83,0,*56
1505718262.71,42868,14.0,73494.0,-1.31,-2.95,-3.07,0,*59
1505718263.91,42869,14.0,73490.3,-1.29,-2.79,-2.95,0,*59
1505718265.11,42870,14.0,73494.3,-1.29,-2.79,-2.95,0,*51
1505718266.35,42871,14.0,73498.0,-1.27,-2.63,-2.79,0,*57
1505718267.6,42872,14.0,73496.8,-1.27,-2.63,-2.79,0,*54
1505718268.84,42873,14.0,73494.3,-1.27,-2.39,-2.55,0,*54
1505718270.09,42874,14.0,73492.0,-1.27,-2.07,-2.19,0,*56
1505718271.33,42875,14.0,73496.0,-1.25,-1.99,-2.11,0,*59
1505718272.59,42876,14.0,73502.0,-1.23,-2.03,-2.23,0,*5D
1505718273.8,42877,14.0,73498.3,-1.19,-2.27,-2.43,0,*55
1505718275.04,42878,14.0,73498.8,-1.21,-2.55,-2.71,0,*55
1505718276.28,42879,14.0,73498.3,-1.19,-2.75,-2.91,0,*53
1505718277.5,42880,14.0,73502.8,-1.19,-2.79,-2.95,0,*5D
1505718278.71,42881,14.0,73498.8,-1.17,-3.31,-3.43,0,*55
1505718279.98,42882,14.0,73496.0,-1.19,-3.43,-3.59,0,*56
1505718281.22,42883,14.0,73496.8,-1.19,-3.51,-3.79,0,*56
1505718282.43,42884,14.0,73500.5,-1.21,-3.95,-4.13,0,*59
1505718283.65,42885,14.0,73504.5,-1.21,-3.47,-3.75,0,*50
1505718284.88,42886,14.0,73502.8,-1.19,-2.67,-2.79,0,*56
1505718286.1,42887,14.0,73496.0,-1.21,-2.35,-2.55,0,*55
1505718287.32,42888,14.0,73492.0,-1.21,-2.35,-2.55,0,*5A
1505718288.55,42889,14.0,73498.0,-1.19,-2.95,-3.27,0,*5E
1505718289.81,42890,14.0,73498.8,-1.19,-3.43,-3.59,0,*55
1505718291.04,42891,14.0,73500.5,-1.19,-3.95,-4.21,0,*57
1505718292.24,42892,14.0,73500.0,-1.21,-4.13,-4.29,0,*5E
1505718293.47,42893,14.0,73498.8,-1.21,-3.47,-3.71,0,*53
1505718294.66,42894,14.0,73496.0,-1.21,-3.07,-3.23,0,*57
1505718295.87,42895,14.0,73492.3,-1.21,-3.23,-3.47,0,*52
1505718297.08,42896,14.0,73498.5,-1.21,-3.19,-3.43,0,*5C
1505718298.28,42897,14.0,73490.8,-1.21,-3.23,-3.47,0,*50
1505718299.52,42898,14.06,73498.0,-1.21,-3.47,-3.71,0,*58
1505718300.74,42899,14.0,73490.3,-1.21,-3.55,-3.75,0,*5E
1505718301.98,42900,14.0,73488.3,-1.19,-3.27,-3.51,0,*57
1505718303.19,42901,14.0,73488.0,-1.19,-2.91,-3.07,0,*59
1505718304.4,42902,14.0,73488.0,-1.19,-2.91,-3.15,0,*59
1505718305.62,42903,14.0,73484.8,-1.19,-3.07,-3.27,0,*57
1505718306.88,42904,14.0,73486.5,-1.19,-3.43,-3.59,0,*59
1505718308.1,42905,14.0,73486.5,-1.19,-2.83,-3.07,0,*5E
1505718309.32,42906,14.0,73486.8,-1.19,-2.79,-2.95,0,*52
1505718310.53,42907,14.0,73488.5,-1.19,-3.19,-3.39,0,*53
1505718311.77,42908,14.0,73486.3,-1.19,-3.71,-4.09,0,*56
1505718313.02,42909,14.0,73486.0,-1.19,-3.71,-3.91,0,*51
1505718314.25,42910,14.0,73488.5,-1.21,-3.55,-3.71,0,*5A
1505718315.45,42911,14.0,73490.3,-1.21,-3.91,-4.17,0,*54
1505718316.68,42912,14.0,73486.5,-1.19,-4.45,-4.73,0,*50
1505718317.87,42913,14.0,73482.3,-1.21,-4.53,-4.99,0,*59
1505718319.07,42914,14.0,73484.8,-1.21,-4.13,-4.37,0,*5E
1505718320.31,42915,14.0,73480.3,-1.23,-4.53,-4.89,0,*5C
1505718321.54,42916,14.0,73484.5,-1.23,-3.87,-4.25,0,*57
1505718322.77,42917,14.0,73490.3,-1.25,-3.47,-3.67,0,*5D
1505718323.99,42918,14.0,73490.8,-1.23,-2.99,-3.35,0,*51
1505718325.21,42919,14.0,73488.0,-1.23,-3.15,-3.39,0,*59
1505718326.45,42920,14.0,73492.8,-1.23,-3.35,-3.63,0,*5E
1505718327.72,42921,14.0,73492.5,-1.23,-3.51,-3.67,0,*59
1505718328.94,42922,14.0,73490.8,-1.25,-3.35,-3.59,0,*53
1505718330.14,42923,14.0,73490.5,-1.25,-3.23,-3.47,0,*5A
1505718331.38,42924,14.0,73492.8,-1.23,-3.23,-3.51,0,*5C
1505718332.57,42925,14.0,73494.5,-1.25,-3.11,-3.35,0,*58
1505718333.78,42926,14.06,73498.0,-1.21,-2.71,-2.87,0,*50
1505718335.06,42927,14.0,73496.3,-1.23,-2.47,-2.63,0,*5C
1505718336.31,42928,14.0,73498.3,-1.23,-2.35,-2.63,0,*56
1505718337.53,42929,14.0,73498.3,-1.21,-1.99,-2.23,0,*54
1505718338.76,42930,14.0,73498.8,-1.21,-2.11,-2.23,0,*5F
1505718339.97,42931,14.0,73496.8,-1.19,-2.15,-2.39,0,*5A
1505718341.25,42932,14.0,73496.5,-1.19,-2.51,-2.67,0,*52
1505718342.49,42933,14.0,73490.0,-1.19,-2.31,-2.51,0,*50
1505718343.75,42934,14.0,73492.3,-1.15,-2.47,-2.59,0,*52
1505718344.97,42935,14.0,73490.0,-1.15,-2.63,-2.79,0,*57
1505718346.17,42936,14.0,73498.3,-1.15,-2.79,-3.11,0,*50
1505718347.36,42937,14.0,73494.0,-1.15,-2.91,-3.15,0,*53
1505718348.62,42938,14.0,73498.3,-1.15,-2.63,-2.75,0,*56
1505718349.85,42939,14.0,73498.5,-1.15,-2.35,-2.51,0,*52
1505718351.13,42940,14.0,73494.3,-1.13,-2.47,-2.63,0,*5E
1505718352.38,42941,14.0,73498.8,-1.11,-2.59,-2.75,0,*55
1505718353.6,42942,14.0,73496.5,-1.11,-2.71,-2.87,0,*51
1505718354.83,42943,14.0,73498.3,-1.11,-2.75,-2.99,0,*5B
1505718356.02,42944,14.0,73496.8,-1.11,-2.87,-3.07,0,*57
1505718357.22,42945,14.0,73498.3,-1.11,-2.99,-3.31,0,*5C
1505718358.43,42946,14.0,73494.3,-1.11,-3.19,-3.43,0,*53
1505718359.62,42947,14.0,73494.8,-1.11,-2.99,-3.23,0,*5D
1505718360.81,42948,14.0,73496.3,-1.11,-3.11,-3.23,0,*53
1505718362.01,42949,14.0,73498.5,-1.07,-3.11,-3.31,0,*56
1505718363.24,42950,14.0,73496.8,-1.11,-3.51,-3.75,0,*5D
1505718364.44,42951,14.0,73496.0,-1.11,-3.87,-4.13,0,*50
1505718365.66,42952,14.0,73476.5,-1.11,-4.61,-5.11,0,*5F
1505718366.89,42953,14.0,73484.5,-1.13,-3.79,-4.17,0,*55
1505718368.14,42954,14.0,73486.3,-1.13,-3.63,-3.87,0,*57
1505718369.38,42955,14.0,73490.0,-1.15,-3.47,-3.67,0,*58
1505718370.61,42956,14.0,73488.8,-1.13,-3.87,-4.13,0,*55
1505718371.86,42957,14.0,73486.3,-1.13,-3.55,-3.75,0,*5C
1505718373.13,42958,14.06,73490.0,-1.13,-3.47,-3.55,0,*52
1505718374.38,42959,14.0,73488.0,-1.13,-3.27,-3.51,0,*51
1505718375.62,42960,14.0,73488.8,-1.13,-3.39,-3.55,0,*50
1505718376.86,42961,14.0,73484.3,-1.11,-3.47,-3.71,0,*5C
1505718378.11,42962,14.0,73488.5,-1.13,-3.55,-3.75,0,*5A
1505718379.38,42963,14.0,73490.5,-1.13,-3.47,-3.67,0,*5B
1505718380.62,42964,14.06,73488.0,-1.13,-3.35,-3.47,0,*5B
1505718381.84,42965,14.0,73486.5,-1.13,-3.23,-3.39,0,*54
1505718383.09,42966,14.0,73490.5,-1.13,-4.41,-4.77,0,*59
1505718384.34,42967,14.06,73490.5,-1.13,-4.41,-4.81,0,*51
1505718385.57,42968,14.0,73486.8,-1.13,-3.75,-4.05,0,*52
1505718386.79,42969,14.0,73490.8,-1.15,-3.31,-3.55,0,*57
1505718387.99,42970,14.06,73490.5,-1.15,-3.03,-3.23,0,*5F
1505718389.2,42971,14.0,73490.3,-1.15,-3.91,-4.13,0,*51
1505718390.43,42972,14.0,73488.3,-1.15,-3.55,-3.91,0,*57
1505718391.63,42973,14.06,73494.0,-1.15,-4.17,-4.41,0,*5D
1505718392.85,42974,14.0,73488.8,-1.15,-3.55,-3.79,0,*57
1505718394.04,42975,14.0,73490.3,-1.17,-3.19,-3.39,0,*58
1505718395.24,42976,14.06,73490.8,-1.15,-2.79,-3.11,0,*54
1505718396.44,42977,14.0,73486.3,-1.15,-3.15,-3.39,0,*54
1505718397.71,42978,14.0,73488.5,-1.13,-3.47,-3.63,0,*55
1505718398.95,42979,14.0,73486.5,-1.13,-3.67,-3.87,0,*5C
1505718400.18,42980,14.0,73486.5,-1.15,-3.55,-3.79,0,*5C
1505718401.41,42981,14.06,73492.5,-1.15,-3.63,-3.75,0,*54
1505718402.64,42982,14.0,73488.8,-1.15,-3.67,-3.79,0,*5F
1505718403.88,42983,14.0,73490.0,-1.13,-3.27,-3.47,0,*51
1505718405.08,42984,14.0,73488.5,-1.11,-2.83,-2.99,0,*59
1505718406.35,42985,14.0,73494.3,-1.13,-2.59,-2.75,0,*5F
1505718407.63,42986,14.0,73492.0,-1.13,-2.47,-2.75,0,*53
1505718408.89,42987,14.0,73488.3,-1.11,-2.47,-2.71,0,*54
1505718410.08,42988,14.0,73492.3,-1.11,-3.11,-3.23,0,*5F
1505718411.3,42989,14.06,73490.5,-1.07,-2.67,-2.87,0,*56
1505718412.54,42990,14.0,73488.3,-1.05,-2.67,-2.83,0,*58
1505718413.74,42991,14.0,73494.5,-1.07,-2.95,-3.19,0,*54
1505718414.98,42992,14.06,73494.0,-1.05,-3.31,-3.47,0,*51
1505718416.23,42993,14.06,73496.3,-1.07,-3.51,-3.71,0,*51
1505718417.43,42994,14.0,73492.5,-1.07,-3.19,-3.39,0,*56
1505718418.65,42995,14.06,73494.0,-1.05,-3.15,-3.39,0,*59
1505718419.86,42996,14.0,73490.8,-1.05,-2.91,-3.03,0,*5E
1505718421.09,42997,14.0,73484.8,-1.05,-3.91,-4.09,0,*53
1505718422.3,42998,14.0,73492.8,-1.07,-4.21,-4.49,0,*56
1505718423.51,42999,14.0,73486.0,-1.07,-3.87,-4.13,0,*53
1505718424.71,43000,14.0,73490.0,-1.07,-4.13,-4.41,0,*56
1505718425.95,43001,14.06,73488.8,-1.11,-4.73,-5.11,0,*52
1505718427.2,43002,14.06,73484.8,-1.13,-4.37,-4.69,0,*5D
1505718428.46,43003,14.06,73484.3,-1.13,-4.69,-4.93,0,*52
1505718429.74,43004,14.06,73482.5,-1.13,-5.31,-5.69,0,*5D
1505718430.98,43005,14.06,73484.5,-1.17,-4.93,-5.19,0,*56
1505718432.2,43006,14.0,73484.8,-1.17,-5.07,-5.35,0,*57
1505718433.41,43007,14.0,73486.0,-1.17,-5.47,-5.77,0,*54
1505718434.65,43008,14.0,73484.3,-1.17,-4.93,-5.23,0,*52
1505718435.86,43009,14.0,73484.0,-1.21,-5.11,-5.43,0,*5B
1505718437.12,43010,14.0,73480.5,-1.21,-5.03,-5.23,0,*56
1505718438.36,43011,14.06,73488.8,-1.23,-4.65,-4.89,0,*55
1505718439.61,43012,14.0,73490.5,-1.23,-4.37,-4.69,0,*5F
1505718440.83,43013,14.0,73492.8,-1.25,-4.57,-4.89,0,*50
1505718442.11,43014,14.06,73490.8,-1.23,-4.89,-5.07,0,*55
1505718443.34,43015,14.06,73488.0,-1.25,-4.69,-5.03,0,*58
1505718444.56,43016,14.0,73480.3,-1.25,-5.15,-5.47,0,*51
1505718445.78,43017,14.0,73478.8,-1.25,-5.07,-5.43,0,*57
1505718446.99,43018,14.0,73480.0,-1.27,-4.99,-5.39,0,*51
1505718448.22,43019,14.06,73494.8,-1.29,-5.07,-5.35,0,*54
1505718449.48,43020,14.06,73490.3,-1.27,-4.85,-5.11,0,*5D
1505718450.7,43021,14.0,73488.3,-1.27,-4.57,-4.99,0,*52
1505718451.95,43022,14.06,73488.5,-1.29,-5.19,-5.61,0,*52
1505718453.23,43023,14.0,73494.0,-1.35,-5.03,-5.27,0,*57
1505718454.48,43024,14.0,73484.3,-1.35,-4.57,-4.85,0,*59
1505718455.72,43025,14.0,73488.0,-1.31,-4.49,-4.73,0,*5A
1505718456.97,43026,14.0,73492.5,-1.35,-4.57,-4.85,0,*5B
1505718458.21,43027,14.0,73486.8,-1.35,-4.45,-4.73,0,*50
1505718459.45,43028,14.0,73484.5,-1.35,-4.61,-4.89,0,*5C
1505718460.7,43029,14.0,73486.5,-1.35,-4.49,-4.89,0,*57
1505718461.94,43030,14.0,73488.8,-1.31,-4.49,-4.77,0,*5A
1505718463.22,43031,14.0,73494.8,-1.35,-5.03,-5.23,0,*50
1505718464.43,43032,14.06,73498.3,-1.35,-4.99,-5.35,0,*56
1505718465.7,43033,14.0,73488.0,-1.39,-4.93,-5.27,0,*52
1505718466.97,43034,14.0,73484.8,-1.39,-4.89,-5.19,0,*53
1505718468.22,43035,14.0,73490.3,-1.41,-4.81,-5.07,0,*5A
1505718469.42,43036,14.0,73492.3,-1.41,-4.41,-4.57,0,*51
1505718470.63,43037,14.0,73492.5,-1.41,-4.45,-4.73,0,*52
1505718471.86,43038,14.0,73488.5,-1.39,-3.91,-4.13,0,*5A
1505718473.11,43039,14.0,73482.8,-1.39,-3.51,-3.79,0,*5C
1505718474.33,43040,14.0,73492.0,-1.39,-4.29,-4.49,0,*5E
1505718475.55,43041,14.0,73494.8,-1.39,-4.41,-4.65,0,*5F
1505718476.81,43042,14.06,73498.0,-1.39,-3.75,-4.01,0,*5E
1505718478.05,43043,14.06,73496.3,-1.39,-3.63,-3.87,0,*51
1505718479.31,43044,14.06,73488.5,-1.39,-4.01,-4.29,0,*56
1505718480.55,43045,14.06,73490.8,-1.31,-3.47,-3.75,0,*54
1505718481.82,43046,14.06,73496.0,-1.31,-3.47,-3.71,0,*53
1505718483.06,43047,14.0,73502.0,-1.31,-3.59,-3.83,0,*50
1505718484.3,43048,14.06,73502.3,-1.31,-3.35,-3.47,0,*5D
1505718485.54,43049,14.0,73494.3,-1.31,-3.35,-3.59,0,*53
1505718486.76,43050,14.0,73490.0,-1.29,-3.39,-3.55,0,*52
1505718487.99,43051,14.06,73492.8,-1.29,-3.51,-3.63,0,*58
1505718489.24,43052,14.0,73486.8,-1.27,-3.63,-4.05,0,*53
1505718490.48,43053,14.06,73494.0,-1.27,-4.45,-4.81,0,*5D
1505718491.7,43054,14.06,73496.0,-1.29,-4.57,-4.93,0,*54
1505718492.95,43055,14.06,73496.0,-1.31,-4.57,-5.03,0,*54
1505718494.17,43056,14.06,73498.5,-1.31,-4.33,-4.49,0,*5A
1505718495.42,43057,14.06,73492.3,-1.27,-4.41,-4.73,0,*50
1505718496.69,43058,14.0,73496.0,-1.35,-4.89,-5.27,0,*58
1505718497.94,43059,14.06,73490.5,-1.35,-5.03,-5.35,0,*59
1505718499.21,43060,14.06,73486.3,-1.35,-5.27,-5.69,0,*5C
1505718500.47,43061,14.06,73482.8,-1.35,-5.23,-5.51,0,*52
1505718501.75,43062,14.06,73488.8,-1.35,-5.03,-5.23,0,*56
1505718503.0,43063,14.06,73496.8,-1.39,-4.65,-5.07,0,*5C
1505718504.25,43064,14.0,73498.8,-1.39,-5.03,-5.43,0,*5A
1505718505.49,43065,14.0,73484.3,-1.41,-4.85,-5.23,0,*5D
1505718506.74,43066,14.0,73480.5,-1.41,-5.31,-5.65,0,*52
1505718507.95,43067,14.06,73484.3,-1.41,-5.11,-5.43,0,*55
1505718509.2,43068,14.0,73492.3,-1.41,-4.73,-5.11,0,*58
1505718510.44,43069,14.06,73496.5,-1.43,-4.53,-4.73,0,*5C
1505718511.66,43070,14.0,73494.5,-1.43,-4.17,-4.33,0,*50
1505718512.88,43071,14.06,73490.3,-1.45,-4.45,-4.77,0,*50
1505718514.11,43072,14.06,73498.8,-1.45,-4.57,-4.93,0,*5A
1505718515.31,43073,14.0,73498.3,-1.45,-4.33,-4.49,0,*5E
1505718516.53,43074,14.0,73502.0,-1.43,-4.17,-4.41,0,*51